Regional Weather Roundup
Issued by NWS

Home | Current Version | Previous Version | Text Only | Print | Product List | Glossary Off
Versions: 1 2 3 4 5 6 7 8 9 10 11 12 13 14 15 16 17 18 19 20 21 22 23 24 25 26 27 28 29 30 31 32 33 34 35 36 37 38 39 40 41 42 43 44 45 46 47 48 49 50

000
ASUS43 KMPX 240301
RWRMN
WEATHER ROUNDUP FOR MINNESOTA
NATIONAL WEATHER SERVICE TWIN CITIES/CHANHASSEN MN
1000 PM CDT THU OCT 23 2014


NOTE: "FAIR" INDICATES FEW OR NO CLOUDS BELOW 12,000 FEET WITH NO
SIGNIFICANT WEATHER AND/OR OBSTRUCTIONS TO VISIBILITY. N/A MEANS
CURRENT SKY AND/OR WEATHER CONDITIONS ARE NOT AVAILABLE.

MNZ060>063-068>070-240400-
   Twin Cities Metro

CITY           SKY/WX    TMP DP  RH WIND       PRES   REMARKS
TWIN CITIES    CLEAR     52  49  89 SE6       29.98S
ST PAUL        CLEAR     51  49  92 SE8       29.99S
CRYSTAL        CLEAR     52  49  89 SE7       29.96S
BLAINE         CLEAR     54  52  94 SE6       29.97S
LAKEVILLE        N/A     45  45 100 CALM      29.98F FOG
EDEN PRAIRIE   CLEAR     52  48  86 SE3       29.96S
SOUTH ST PAUL  CLEAR     51  49  93 SE3       29.98S
LAKE ELMO      FAIR      46  46 100 CALM      30.00R FOG
$$
MNZ001>005-007-008-013>017-022>024-027-028-240400-
   Northwest Minnesota

CITY           SKY/WX    TMP DP  RH WIND       PRES   REMARKS
BEMIDJI        MOCLDY    54  37  52 S8        29.84S
HALLOCK        CLOUDY    48  39  71 SE8       29.76S
ROSEAU         CLOUDY    52  43  71 S7        29.78S
WARROAD        MOCLDY    50  43  76 S5        29.78F
THIEF RVR FALL MOCLDY    52  39  62 S7        29.80S
CROOKSTON      PTCLDY    52  41  66 SW8       29.81S
FOSSTON        MOCLDY    48  37  66 S8        29.83S
DETROIT LAKES  PTCLDY    54  39  58 S6        29.88R
MOORHEAD       PTCLDY    57  36  44 S12       29.84S
PARK RAPIDS    PTCLDY    52  41  66 S9        29.86F
MAHNOMEN       FAIR      55  38  52 S13       29.83F
$$
MNZ006-009>011-018-025>026-240400-
   North Central Minnesota

CITY           SKY/WX    TMP DP  RH WIND       PRES   REMARKS
BAUDETTE       PTCLDY    48  37  65 S3        29.80F
FLAG ISLAND    MOCLDY    50  46  87 S6        29.77S
INTL FALLS     CLEAR     48  38  68 CALM      29.83F
WASKISH        PTCLDY    52  37  58 CALM      29.81F
BIG FORK       CLEAR     46  39  76 S3        29.86F
LONGVILLE      CLEAR     48  39  71 SE6       29.87F
GRAND RAPIDS   CLEAR     48  41  76 S8        29.89F
CRANE LAKE     CLEAR     48  46  93 S3        29.88F
ORR            CLEAR     48  45  87 CALM      29.85F
COOK           CLEAR     52  46  82 S5        29.89F
WALKER         FAIR      56  39  53 S8        29.85F
$$
MNZ012-019>021-037-240400-
   Northeast Minnesota

CITY           SKY/WX    TMP DP  RH WIND       PRES   REMARKS
DULUTH         PTCLDY    49  46  90 S7        29.93F
ELY            PTCLDY    46  45  93 S5        29.91F
HIBBING        PTCLDY    40  37  89 CALM      29.91S FOG
EVELETH        FOG       36  36 100 CALM      29.92F VSB 1/2
DULUTH HARBOR  PTCLDY    48  46  93 CALM      29.95S
TWO HARBORS    HAZE      39  28  65 CALM      29.92F VSB 1/2
SILVER BAY     FOG       41  39  93 CALM      29.93S VSB 1/4
GRAND MARAIS     N/A     47  46  97 W3        29.95S
G MARAIS ARPRT FOG       46  43  87 S6        29.94S VSB 3/4
$$
MNZ029>031-032-039>041-046>048-054>057-064-240400-
   West Central Minnesota

CITY           SKY/WX    TMP DP  RH WIND       PRES   REMARKS
FERGUS FALLS   MOCLDY    54  39  58 S9        29.88S
WHEATON        PTCLDY    54  41  62 S10       29.90R
MORRIS         PTCLDY    48  39  71 S7        29.90S
ALEXANDRIA     CLEAR     53  40  61 S9        29.92F
ELBOW LAKE     FAIR      50  42  73 S10       29.89R
WADENA         PTCLDY    52  43  71 S6        29.88S
GLENWOOD       CLEAR     48  41  76 S7        29.92F
APPLETON       CLEAR     55  43  62 S5        29.91R
BENSON         CLEAR     50  43  76 S7        29.91F
ORTONVILLE     PTCLDY    52  39  62 S3        29.90S
MADISON        PTCLDY    48  43  81 S6        29.91F
WILLMAR        FAIR      48  39  71 S3        29.95S
$$
MNZ033>034-036-042>043-049>051-058-059-240400-
   Central Minnesota

CITY           SKY/WX    TMP DP  RH WIND       PRES   REMARKS
ST CLOUD       CLEAR     48  39  71 SE3       29.93F
SAUK CENTRE    FAIR      49  39  68 S3        29.92F
PAYNESVILLE    CLEAR     52  38  57 SE7       29.94S
AITKIN         CLEAR     54  46  76 S5        29.89F
PINE RIVER     CLEAR     52  39  62 S6        29.91F
BRAINERD       CLEAR     49  38  65 S9        29.91F
STAPLES        PTCLDY    48  39  71 S6        29.89F
LONG PRAIRIE   FAIR      46  37  71 S5        29.92F
LITTLE FALLS   CLEAR     48  36  61 S5        29.91F
LITCHFIELD     CLEAR     52  41  66 CALM      29.95F
BUFFALO        CLEAR     49  41  75 CALM      29.96F
MAPLE LAKE     CLEAR     50  45  81 S3        29.95F
$$
MNZ037-044-045-052-053-240400-
   East Central Minnesota

CITY           SKY/WX    TMP DP  RH WIND       PRES   REMARKS
PRINCETON      CLEAR     48  46  93 SE5       29.95F
MORA           CLEAR     45  45 100 CALM      29.96F
CAMBRIDGE      CLEAR     54  45  71 SE6       29.94F
RUSH CITY      PTCLDY    50  48  93 S5        29.96S
MOOSE LAKE     CLEAR     46  45  93 S3        29.92F FOG
HINCKLEY       FAIR      50  50 100 S5        29.95F
CLOQUET        FAIR      48  46  93 S3        29.94S FOG
MCGREGOR       CLEAR     46  43  87 S5        29.92F
$$
MNZ071>073-080-081-089-090-097-098-240400-
   Southwest Minnesota

CITY           SKY/WX    TMP DP  RH WIND       PRES   REMARKS
MONTEVIDEO     CLEAR     55  45  67 SW7       29.93F
GRANITE FALLS  CLEAR     47  42  81 S8        29.94F
CANBY          PTCLDY    55  44  67 S7        29.92F
MARSHALL       CLEAR     54  41  62 S10       29.92F
REDWOOD FALLS  CLEAR     52  41  66 S9        29.94F
OLIVIA         CLEAR     50  41  71 S3        29.94S
PIPESTONE      MOCLDY    55  45  67 S9        29.94F
WINDOM         CLEAR     52  43  71 CALM      29.98S
WORTHINGTON    CLEAR     54  43  66 S10       29.98S
JACKSON        CLEAR     52  41  66 S7        29.98F
TRACY          CLEAR     56  44  64 S10       29.95F
SLAYTON        CLEAR     51  43  76 S9        29.97F
$$
MNZ065>067-074>077-082>085-091>093-240400-
   South Central Minnesota

CITY           SKY/WX    TMP DP  RH WIND       PRES   REMARKS
MANKATO        CLEAR     54  36  50 S8        29.98S
NEW ULM        CLEAR     50  39  66 S7        29.96F
ST JAMES       CLEAR     52  39  62 S7        29.98F
FAIRMONT       CLEAR     46  36  66 SW7       29.99S
GLENCOE        CLEAR     49  42  75 CALM      29.95F
FARIBAULT      CLEAR     52  48  87 S5        29.99S
OWATONNA       CLEAR     52  48  87 SE9       30.00S
WASECA         CLEAR     45  37  76 SE6       30.01S
ALBERT LEA     CLEAR     52  50  93 S5        30.01S FOG
$$
MNZ078>079-086>088-094>096-240400-
   Southeast Minnesota

CITY           SKY/WX    TMP DP  RH WIND       PRES   REMARKS
ROCHESTER      CLEAR     46  45  96 S8        30.02S FOG
RED WING       CLOUDY    52  48  87 SE5       30.00R FOG
STANTON        CLEAR     51  47  88 S5        29.98S
DODGE CENTER   PTCLDY    50  48  93 S10       30.01S FOG
WINONA         CLOUDY    52  50  93 SE3       30.02F FOG
AUSTIN         PTCLDY    48  46  93 S3        30.01S FOG
PRESTON        FOG       47  47  97 S8        30.03S VSB<1/4
$$
ABBREVIATIONS USED IN REMARKS
   TC - TEMPERATURES IN CELSIUS
  WCI - WIND CHILL INDEX
   HX - HEAT INDEX
  VSB - VISIBILITY
$$



USA.gov is the U.S. government's official web portal to all federal, state and local government web resources and services.